JST737 YMML-YMLT

Flight info

Callsign JST737
Flight time 0h 49m
Altitude 35000
Route SUNTI4/34 SUNTI H169 IRSOM W105 LT DCT
Aircraft A320/M-SDE3FGHIRWY/LB1

Departure

Time 2026-04-16 07:22
Airport Melbourne Airport (YMML)

Arrival

Time 2026-04-16 08:12
Airport Launceston Airport (YMLT)
Time Latitude Longitude Altitude Speed Heading
2026-04-16 06:36 -37.67748 144.84486 369 ft 0 kts 82°
2026-04-16 07:02 -37.67759 144.84374 366 ft 0 kts 171°
2026-04-16 07:03 -37.67708 144.84479 370 ft 0 kts 81°
2026-04-16 07:11 -37.67710 144.84460 370 ft 2 kts 81°
2026-04-16 07:12 -37.67713 144.84440 373 ft 2 kts 81°
2026-04-16 07:12 -37.67715 144.84419 371 ft 2 kts 81°
2026-04-16 07:12 -37.67718 144.84398 369 ft 2 kts 75°
2026-04-16 07:12 -37.67722 144.84378 368 ft 2 kts 111°
2026-04-16 07:13 -37.67714 144.84366 369 ft 1 kts 171°
2026-04-16 07:13 -37.67713 144.84366 369 ft 0 kts 170°
2026-04-16 07:15 -37.67717 144.84367 369 ft 4 kts 171°
2026-04-16 07:15 -37.67780 144.84365 371 ft 12 kts 194°
2026-04-16 07:16 -37.67850 144.84282 363 ft 17 kts 246°
2026-04-16 07:16 -37.67864 144.84184 362 ft 0 kts 263°
2026-04-16 07:17 -37.67864 144.84178 362 ft 4 kts 262°
2026-04-16 07:17 -37.67872 144.84116 364 ft 0 kts 258°
2026-04-16 07:21 -37.67879 144.84062 356 ft 11 kts 262°
2026-04-16 07:21 -37.67876 144.83974 358 ft 10 kts 307°
2026-04-16 07:21 -37.67828 144.83961 359 ft 0 kts 353°
2026-04-16 07:21 -37.67823 144.83960 359 ft 10 kts 353°
2026-04-16 07:22 -37.67495 144.83899 370 ft 82 kts 351°
2026-04-16 07:22 -37.66744 144.83758 400 ft 134 kts 353°
2026-04-16 07:22 -37.65774 144.83615 775 ft 143 kts 349°
2026-04-16 07:22 -37.64778 144.83437 1365 ft 144 kts 342°
2026-04-16 07:23 -37.63786 144.83237 1965 ft 145 kts 343°
2026-04-16 07:23 -37.62750 144.83020 2321 ft 164 kts 342°
2026-04-16 07:23 -37.61550 144.82763 2606 ft 187 kts 344°
2026-04-16 07:23 -37.60180 144.82480 2935 ft 212 kts 346°
2026-04-16 07:24 -37.58602 144.82593 3374 ft 246 kts 12°
2026-04-16 07:24 -37.57068 144.83797 3964 ft 278 kts 45°
2026-04-16 07:24 -37.56212 144.86041 4704 ft 295 kts 78°
2026-04-16 07:24 -37.56425 144.88603 5446 ft 301 kts 114°
2026-04-16 07:25 -37.57685 144.90669 6375 ft 298 kts 148°
2026-04-16 07:25 -37.59526 144.91781 7245 ft 293 kts 169°
2026-04-16 07:25 -37.61509 144.92338 8169 ft 292 kts 178°
2026-04-16 07:25 -37.63524 144.92721 9078 ft 294 kts 180°
2026-04-16 07:26 -37.65535 144.93112 9956 ft 299 kts 179°
2026-04-16 07:26 -37.67670 144.93596 10436 ft 319 kts 177°
2026-04-16 07:26 -37.69929 144.94188 10694 ft 344 kts 175°
2026-04-16 07:26 -37.72271 144.94891 11222 ft 355 kts 173°
2026-04-16 07:27 -37.74684 144.95689 11930 ft 361 kts 172°
2026-04-16 07:27 -37.77127 144.96531 12687 ft 366 kts 172°
2026-04-16 07:27 -37.79594 144.97385 13435 ft 369 kts 172°
2026-04-16 07:27 -37.82085 144.98242 14133 ft 373 kts 173°
2026-04-16 07:28 -37.84607 144.99097 14793 ft 377 kts 173°
2026-04-16 07:28 -37.87146 144.99951 15441 ft 380 kts 173°
2026-04-16 07:28 -37.89718 145.00812 16092 ft 383 kts 173°
2026-04-16 07:28 -37.92309 145.01675 16742 ft 387 kts 173°
2026-04-16 07:29 -37.94892 145.02531 17386 ft 390 kts 173°
2026-04-16 07:29 -37.97526 145.03405 18055 ft 394 kts 173°
2026-04-16 07:29 -38.00188 145.04290 18657 ft 398 kts 173°
2026-04-16 07:29 -38.02876 145.05186 19243 ft 401 kts 173°
2026-04-16 07:30 -38.05594 145.06095 19841 ft 405 kts 173°
2026-04-16 07:30 -38.08336 145.07014 20427 ft 409 kts 173°
2026-04-16 07:30 -38.11097 145.07942 21002 ft 413 kts 173°
2026-04-16 07:30 -38.13894 145.08884 21566 ft 417 kts 173°
2026-04-16 07:31 -38.16716 145.09836 22110 ft 421 kts 173°
2026-04-16 07:31 -38.19522 145.10780 22639 ft 425 kts 173°
2026-04-16 07:31 -38.22397 145.11748 23170 ft 429 kts 173°
2026-04-16 07:31 -38.25300 145.12726 23660 ft 433 kts 173°
2026-04-16 07:32 -38.28218 145.13710 24080 ft 437 kts 173°
2026-04-16 07:32 -38.31174 145.14707 24500 ft 440 kts 174°
2026-04-16 07:32 -38.34147 145.15711 24918 ft 443 kts 174°
2026-04-16 07:32 -38.37137 145.16724 25332 ft 446 kts 174°
2026-04-16 07:33 -38.40149 145.17746 25748 ft 449 kts 174°
2026-04-16 07:33 -38.43143 145.18762 26141 ft 452 kts 174°
2026-04-16 07:33 -38.46184 145.19793 26538 ft 455 kts 174°
2026-04-16 07:33 -38.49262 145.20839 26930 ft 458 kts 174°
2026-04-16 07:34 -38.52350 145.21933 27316 ft 463 kts 173°
2026-04-16 07:34 -38.55442 145.23174 27700 ft 469 kts 171°
2026-04-16 07:34 -38.58534 145.24533 28081 ft 473 kts 169°
2026-04-16 07:34 -38.61639 145.25965 28464 ft 477 kts 169°
2026-04-16 07:35 -38.64771 145.27427 28837 ft 480 kts 169°
2026-04-16 07:35 -38.67917 145.28525 29694 ft 449 kts 185°
2026-04-16 07:35 -38.70883 145.28444 30854 ft 407 kts 202°
2026-04-16 07:35 -38.73363 145.27303 31967 ft 355 kts 225°
2026-04-16 07:36 -38.75012 145.25306 33014 ft 314 kts 244°
2026-04-16 07:36 -38.76151 145.23006 33692 ft 301 kts 250°
2026-04-16 07:36 -38.77039 145.20606 34092 ft 295 kts 256°
2026-04-16 07:36 -38.77653 145.18120 34373 ft 291 kts 263°
2026-04-16 07:37 -38.77908 145.15555 34631 ft 289 kts 272°
2026-04-16 07:37 -38.77552 145.13056 34848 ft 290 kts 294°
2026-04-16 07:37 -38.76200 145.11075 34927 ft 309 kts 319°
2026-04-16 07:37 -38.74089 145.10137 34937 ft 342 kts 343°
2026-04-16 07:38 -38.71658 145.10048 34939 ft 352 kts 346°
2026-04-16 07:38 -38.66774 145.09995 34942 ft 363 kts 351°
2026-04-16 07:38 -38.64198 145.10769 34945 ft 401 kts 11°
2026-04-16 07:39 -38.61718 145.12705 34944 ft 436 kts 29°
2026-04-16 07:39 -38.59513 145.15394 34929 ft 441 kts 41°
2026-04-16 07:39 -38.57982 145.18846 34915 ft 456 kts 70°
2026-04-16 07:39 -38.57613 145.22900 34947 ft 467 kts 94°
2026-04-16 07:40 -38.58373 145.26905 34945 ft 465 kts 120°
2026-04-16 07:40 -38.60140 145.30270 34948 ft 449 kts 144°
2026-04-16 07:40 -38.63559 145.33571 34941 ft 436 kts 166°
2026-04-16 07:40 -38.74991 145.38084 34862 ft 461 kts 173°
2026-04-16 07:41 -38.86508 145.42736 34832 ft 479 kts 173°
2026-04-16 07:41 -38.89710 145.44013 34939 ft 483 kts 173°
2026-04-16 07:41 -38.96928 145.46839 34962 ft 497 kts 173°
2026-04-16 07:41 -39.04286 145.49726 34932 ft 510 kts 173°
2026-04-16 07:42 -39.07688 145.51086 34918 ft 512 kts 172°
2026-04-16 07:42 -39.24879 145.57968 34900 ft 514 kts 173°
2026-04-16 07:43 -39.33938 145.61582 34907 ft 514 kts 173°
2026-04-16 07:43 -39.45131 145.66100 34904 ft 515 kts 173°
2026-04-16 07:44 -39.56693 145.70753 34897 ft 515 kts 173°
2026-04-16 07:44 -39.69525 145.75913 34885 ft 513 kts 173°
2026-04-16 07:44 -39.72859 145.77281 34894 ft 499 kts 173°
2026-04-16 07:45 -39.76149 145.78634 34882 ft 493 kts 173°
2026-04-16 07:45 -39.82678 145.81297 34877 ft 491 kts 174°
2026-04-16 07:46 -39.89145 145.83907 34875 ft 490 kts 174°
2026-04-16 07:46 -39.95665 145.86548 34872 ft 491 kts 174°
2026-04-16 07:47 -40.02174 145.89231 34875 ft 492 kts 173°
2026-04-16 07:47 -40.08720 145.92203 34860 ft 505 kts 171°
2026-04-16 07:48 -40.15204 145.95324 34856 ft 497 kts 171°
2026-04-16 07:48 -40.21700 145.98423 34853 ft 496 kts 171°
2026-04-16 07:49 -40.28190 146.01444 34847 ft 495 kts 172°
2026-04-16 07:49 -40.34683 146.04447 34847 ft 495 kts 171°
2026-04-16 07:50 -40.41142 146.07453 34838 ft 496 kts 171°
2026-04-16 07:50 -40.47647 146.10507 34278 ft 499 kts 171°
2026-04-16 07:50 -40.50942 146.12051 32707 ft 505 kts 171°
2026-04-16 07:51 -40.54271 146.13607 30920 ft 512 kts 171°
2026-04-16 07:51 -40.57615 146.15181 29544 ft 509 kts 170°
2026-04-16 07:51 -40.60925 146.16758 28312 ft 500 kts 169°
2026-04-16 07:51 -40.64140 146.18301 27744 ft 487 kts 170°
2026-04-16 07:52 -40.67270 146.19793 27084 ft 483 kts 170°
2026-04-16 07:52 -40.70406 146.21280 26509 ft 476 kts 170°
2026-04-16 07:52 -40.73514 146.22744 25924 ft 471 kts 170°
2026-04-16 07:52 -40.76581 146.24184 25350 ft 466 kts 170°
2026-04-16 07:53 -40.79616 146.25610 24795 ft 461 kts 170°
2026-04-16 07:53 -40.82632 146.27031 24240 ft 457 kts 169°
2026-04-16 07:53 -40.85598 146.28436 23725 ft 452 kts 169°
2026-04-16 07:53 -40.88544 146.29836 23175 ft 448 kts 169°
2026-04-16 07:54 -40.91460 146.31230 22659 ft 443 kts 169°
2026-04-16 07:54 -40.94339 146.32610 22169 ft 437 kts 169°
2026-04-16 07:54 -40.97188 146.33972 21690 ft 433 kts 169°
2026-04-16 07:54 -40.99970 146.35296 21221 ft 430 kts 170°
2026-04-16 07:55 -41.02777 146.36632 20726 ft 427 kts 170°
2026-04-16 07:55 -41.05556 146.37956 20251 ft 424 kts 169°
2026-04-16 07:55 -41.08319 146.39277 19750 ft 421 kts 169°
2026-04-16 07:55 -41.11071 146.40592 19248 ft 418 kts 170°
2026-04-16 07:56 -41.13772 146.42044 18732 ft 424 kts 162°
2026-04-16 07:56 -41.16302 146.44149 18199 ft 434 kts 149°
2026-04-16 07:56 -41.18512 146.46924 17595 ft 443 kts 136°
2026-04-16 07:56 -41.20313 146.50256 17036 ft 445 kts 126°
2026-04-16 07:57 -41.21950 146.53658 16473 ft 441 kts 127°
2026-04-16 07:57 -41.23600 146.57069 15907 ft 437 kts 127°
2026-04-16 07:57 -41.25242 146.60451 15346 ft 433 kts 127°
2026-04-16 07:57 -41.26872 146.63803 14787 ft 430 kts 127°
2026-04-16 07:58 -41.28487 146.67136 14224 ft 427 kts 127°
2026-04-16 07:58 -41.30077 146.70429 13656 ft 417 kts 126°
2026-04-16 07:58 -41.31604 146.73610 13083 ft 400 kts 126°
2026-04-16 07:58 -41.33067 146.76666 12569 ft 383 kts 127°
2026-04-16 07:59 -41.34474 146.79605 12062 ft 370 kts 127°
2026-04-16 07:59 -41.35817 146.82406 11584 ft 362 kts 127°
2026-04-16 07:59 -41.37173 146.85224 11093 ft 361 kts 127°
2026-04-16 07:59 -41.38499 146.87985 10613 ft 358 kts 127°
2026-04-16 08:00 -41.39832 146.90763 10144 ft 353 kts 127°
2026-04-16 08:00 -41.41123 146.93455 9743 ft 340 kts 127°
2026-04-16 08:00 -41.42374 146.96069 9557 ft 332 kts 127°
2026-04-16 08:00 -41.43617 146.98667 9424 ft 334 kts 127°
2026-04-16 08:01 -41.44863 147.01271 9251 ft 332 kts 127°
2026-04-16 08:01 -41.46081 147.03825 8911 ft 329 kts 127°
2026-04-16 08:01 -41.47304 147.06393 8571 ft 327 kts 127°
2026-04-16 08:01 -41.48518 147.08945 8236 ft 326 kts 127°
2026-04-16 08:02 -41.49724 147.11482 7602 ft 317 kts 127°
2026-04-16 08:02 -41.52328 147.16932 5539 ft 347 kts 126°
2026-04-16 08:02 -41.53589 147.19619 4879 ft 335 kts 126°
2026-04-16 08:03 -41.54877 147.22035 4746 ft 303 kts 138°
2026-04-16 08:03 -41.56225 147.23996 4622 ft 281 kts 139°
2026-04-16 08:03 -41.57500 147.25844 4492 ft 261 kts 139°
2026-04-16 08:03 -41.58682 147.27559 4332 ft 243 kts 139°
2026-04-16 08:04 -41.59791 147.29165 4179 ft 227 kts 140°
2026-04-16 08:04 -41.60827 147.30664 4100 ft 210 kts 140°
2026-04-16 08:04 -41.61775 147.32036 4000 ft 192 kts 140°
2026-04-16 08:04 -41.62647 147.33291 3992 ft 181 kts 140°
2026-04-16 08:05 -41.63478 147.34480 3918 ft 171 kts 141°
2026-04-16 08:05 -41.64276 147.35619 3803 ft 167 kts 141°
2026-04-16 08:05 -41.65121 147.36648 3709 ft 160 kts 158°
2026-04-16 08:05 -41.66118 147.37139 3650 ft 147 kts 183°
2026-04-16 08:06 -41.67097 147.37106 3582 ft 136 kts 204°
2026-04-16 08:06 -41.67947 147.36660 3526 ft 128 kts 223°
2026-04-16 08:06 -41.68600 147.35919 3466 ft 120 kts 239°
2026-04-16 08:06 -41.69030 147.34985 3410 ft 121 kts 252°
2026-04-16 08:07 -41.69235 147.33889 3351 ft 123 kts 266°
2026-04-16 08:07 -41.69175 147.32744 3287 ft 125 kts 282°
2026-04-16 08:07 -41.68841 147.31668 3223 ft 127 kts 297°
2026-04-16 08:07 -41.68256 147.30774 3155 ft 129 kts 313°
2026-04-16 08:08 -41.67483 147.30165 3095 ft 129 kts 325°
2026-04-16 08:08 -41.66682 147.29662 3031 ft 125 kts 326°
2026-04-16 08:08 -41.66159 147.29344 2992 ft 124 kts 326°
2026-04-16 08:08 -41.65388 147.28832 2823 ft 123 kts 324°
2026-04-16 08:09 -41.64602 147.28362 2632 ft 127 kts 334°
2026-04-16 08:09 -41.63420 147.28157 2399 ft 128 kts 341°
2026-04-16 08:09 -41.62576 147.27862 2227 ft 123 kts 331°
2026-04-16 08:09 -41.61796 147.27418 2041 ft 121 kts 325°
2026-04-16 08:10 -41.61071 147.26865 1865 ft 120 kts 321°
2026-04-16 08:10 -41.60376 147.26238 1723 ft 122 kts 320°
2026-04-16 08:10 -41.59926 147.25789 1606 ft 121 kts 320°
2026-04-16 08:10 -41.58989 147.24923 1390 ft 123 kts 324°
2026-04-16 08:11 -41.58511 147.24517 1314 ft 124 kts 324°
2026-04-16 08:11 -41.57556 147.23692 1084 ft 124 kts 327°
2026-04-16 08:11 -41.56829 147.23079 925 ft 124 kts 327°
2026-04-16 08:11 -41.56093 147.22455 780 ft 125 kts 327°
2026-04-16 08:12 -41.55604 147.22039 675 ft 122 kts 327°
2026-04-16 08:12 -41.54904 147.21438 568 ft 109 kts 327°
2026-04-16 08:12 -41.54425 147.21032 570 ft 44 kts 328°
2026-04-16 08:12 -41.54307 147.20931 567 ft 16 kts 326°
2026-04-16 08:13 -41.54301 147.20838 573 ft 13 kts 234°
2026-04-16 08:13 -41.54334 147.20777 566 ft 3 kts 235°
2026-04-16 08:13 -41.54336 147.20770 565 ft 1 kts 254°
2026-04-16 08:13 -41.54330 147.20753 565 ft 5 kts 288°
2026-04-16 08:14 -41.54313 147.20678 569 ft 6 kts 291°
2026-04-16 08:14 -41.54309 147.20665 569 ft 0 kts 292°